Söndagen den 22 januari 2017 (Vincent, Viktor)

Blekinge Flygklubb
Eringsbodavägen 16 B
372 92 Kallinge
Org.nr. 835600-0144

Det finns inget på Anslagstavlan.

Väder ESDF

METAR
ESDF 220520Z AUTO 26004KT 230V290 0200 0150// R01/0600N R19/0650N FZFG VV002/// M02/M02 Q1029

TAF
Ej tillgänglig

Förgasaris
Okänd

METAR | TAF | Nordic SWC | Väderstatistik

Inhämta alltid aktuellt väder hos LFV innan du flyger.

NOTAM för kommande 24h

+ = 0-3 dgr | - = >3 dgr gammal
Endast VFR. Kontrollera alltid hos LFV.